Regional Weather Roundup
Issued by NWS Newport/Morehead, NC

Current Version | Previous Version | Graphics & Text | Print | Product List | Glossary On
Versions: 1 2 3 4 5 6 7 8 9 10 11 12 13 14 15 16 17 18 19 20 21 22 23 24 25 26 27 28 29 30 31 32 33 34 35 36 37 38 39 40 41 42 43 44 45 46 47 48 49 50
000 ASUS42 KMHX 011922 RWRMHX WEATHER ROUNDUP FOR EASTERN NORTH CAROLINA NATIONAL WEATHER SERVICE NEWPORT/MOREHEAD CITY NC 300 PM EDT WED OCT 01 2014 NOTE: "FAIR" INDICATES FEW OR NO CLOUDS BELOW 12,000 FEET WITH NO SIGNIFICANT WEATHER AND/OR OBSTRUCTIONS TO VISIBILITY NCZ015>017-031-032-045>047-102-103-012000- NORTH COAST CITY SKY/WX TMP DP RH WIND PRES REMARKS EDENTON MOSUNNY 78 62 58 N5 29.97S ELIZABETH CITY SUNNY 79 63 57 NE8 29.97F KITTY HAWK PTCLDY 74 63 69 N9 29.96S MANTEO MOSUNNY 74 63 69 N13 29.98S $$ NCZ045>047-081-094-103-104-012000- CENTRAL COAST CITY SKY/WX TMP DP RH WIND PRES REMARKS FRISCO SUNNY 74 64 71 NE10G18 29.96S SWANQUARTER N/A 77 N/A N/A E5G10 29.91S $$ NCZ095-097-098-100-101-012000- SOUTHERN COAST CITY SKY/WX TMP DP RH WIND PRES REMARKS BEAUFORT SUNNY 80 62 54 NE10 29.96F CEDAR ISLAND N/A 75 N/A N/A NE3 30.00S JACKSONVILLE SUNNY 81 62 52 VRB6 29.96F NEWPORT NOT AVBL PINEY ISLAND CLEAR 79 62 56 N8 29.96F WILMINGTON MOSUNNY 82 64 54 N8 29.97S $$ NCZ011>013-027>030-043-044-078>080-089-090>093-098-012000- COASTAL PLAIN CITY SKY/WX TMP DP RH WIND PRES REMARKS AHOSKIE MOSUNNY 73 64 71 CALM 29.99S CLINTON MOSUNNY 82 66 59 N6 29.98S ELIZABETHTOWN MOSUNNY 82 63 52 CALM 29.98S GOLDSBORO MOSUNNY 78 68 69 CALM 29.97F GREENVILLE PTSUNNY 79 63 57 N6 30.00F HAVELOCK MOSUNNY 82 64 54 NW8 29.97F KENANSVILLE SUNNY 79 61 53 CALM 29.98F KINSTON MOSUNNY 81 63 54 N7 29.99S NEW BERN SUNNY 80 62 54 N6 29.98S RICHLANDS MOSUNNY 81 63 54 N6 29.97S ROANOKE RAPIDS NOT AVBL ROCKY MOUNT MOSUNNY 78 63 59 VRB3 29.99F WASHINGTON MOSUNNY 77 63 61 N6 29.98S WHITEVILLE MOSUNNY 80 64 57 CALM 29.97S $$ AMZ130-135-150-152-154-156-158-170-250-252-270-ANZ085-086-088-633-658-670-012000- MARINE OBSERVATIONS STATION/POSITION TIME TEMP WIND PRES WAVE SWELL AIR SEA DIR/SP/G HT/PER HT/PER (UTC) (F) (DEG/KT/KT) (MB) (FT/S) (FT/S) CHESAPEAKE LIGHT 1900 69 360/ 9/ 10 1015.7 BUOY 44014 1900 70 71 10/ 14/ 17 1013.7 4/ 5 2/ 7 DUCK 1900 70 73 350/ 14/ 15 1014.3 2E DUCK 1900 N/A 3/ 5 2/13 OREGON INLET 1900 73 73 350/ 9/ 15 1014.8 BUOY 44095 1900 73 N/A 4/ 7 20E OREGON INLET NOT AVBL HATTERAS CG 1900 72 74 20/ 14/ 17 1014.9 DIAMOND BUOY 1800 72 350/ 16/ 19 1014.0 4/ 7 3/ 7 CAPE LOOKOUT 1900 75 50/ 8/ 9 1014.6 BEAUFORT LAB 1900 78 75 10/ 7/ 9 1014.1 30 SE NEW RIVER 1900 74 80 20/ 8/ 12 1014.2 2/13 2/13 5 SE WRIGHTSVILL 1900 71 76 100/ 6/ 8 N/A BUOY 41002 1824 78 81 10/ 12/ 14 1012.4 4/ 6 3/ 6 BUOY 41004 1900 77 81 40/ 8/ 12 1014.4 3/ 6 2/ 6 $$

USA.gov is the U.S. government's official web portal to all federal, state and local government web resources and services.